Wind_Speed
15 16 16 16 16 16 16 16 16 15 15 14 15 14 14 14 15 14 14 13 13 13 13 14 15 16 16 17 18 19 20 21 21 22 23 24 25 26 27 28 29 30 30 31
16 16 17 17 17 17 17 17 17 17 16 16 15 16 16 16 16 16 16 15 15 16 15 15 15 16 17 19 20 21 22 23 24 25 26 27 28 29 30 31 32 32 33 33
17 18 18 16 17 18 18 17 17 18 17 17 17 17 18 18 18 17 17 18 18 17 17 17 17 18 20 21 22 23 24 25 26 27 28 29 30 31 32 34 35 35 35 36
19 20 20 18 18 19 19 18 17 18 18 18 18 18 19 20 20 19 19 20 21 20 20 20 21 22 23 24 24 26 26 27 28 29 30 32 33 33 35 37 37 38 39 39
20 20 19 18 19 19 18 17 17 17 18 18 18 18 19 21 21 20 20 21 22 22 23 23 24 24 25 26 27 28 29 30 31 32 34 35 36 37 38 39 40 41 41 41
21 21 21 20 20 20 19 18 18 18 18 18 18 19 20 21 22 21 22 22 23 24 25 26 26 26 27 28 29 30 31 33 34 36 37 38 39 41 41 42 43 44 45 45
20 22 22 21 19 19 20 19 19 18 18 18 18 18 19 20 22 23 24 24 25 26 27 27 28 29 29 31 32 33 34 35 37 38 40 40 42 43 45 46 47 48 48 48
22 22 21 20 19 20 20 20 20 20 19 19 19 19 19 20 22 24 25 25 26 26 27 28 29 30 31 33 34 36 37 38 39 41 42 44 45 46 47 49 50 51 52 52
22 21 21 20 20 20 20 21 21 21 21 21 21 21 21 21 22 24 24 24 25 27 28 29 31 32 33 35 37 38 39 41 42 44 45 47 48 49 51 52 53 54 55 55
23 21 21 21 21 21 21 22 22 22 21 21 22 22 22 23 23 23 24 25 26 28 29 31 33 34 36 37 39 40 42 43 45 46 47 49 51 52 53 54 56 57 57 58
24 23 23 22 22 23 23 22 22 21 21 21 21 22 23 23 24 25 26 27 29 30 32 33 35 36 37 39 41 42 44 45 47 48 49 51 52 54 55 57 58 59 60 61
25 25 24 23 23 24 24 24 23 23 23 23 24 24 25 25 26 27 28 29 31 32 34 35 36 38 39 41 42 44 45 47 49 50 52 53 55 56 58 60 61 63 64 65
26 26 25 25 25 25 25 25 25 25 25 26 25 25 26 27 28 29 30 31 33 34 36 37 38 40 41 43 44 46 47 49 51 52 54 56 57 59 60 61 63 65 67 68
27 26 26 26 26 26 26 26 26 26 27 27 27 27 28 29 29 30 32 33 35 36 38 39 40 42 43 45 47 48 50 52 53 55 57 59 60 62 63 65 65 66 67 69
26 26 26 27 27 27 28 28 28 28 28 27 27 28 28 30 31 33 34 35 37 38 40 42 43 45 46 48 50 51 53 55 56 58 59 61 63 64 65 66 67 67 67 66
25 25 26 27 27 28 28 28 28 28 28 28 28 29 30 32 33 35 36 38 40 41 43 45 46 48 50 51 52 54 55 57 58 59 61 62 63 63 64 63 63 62 61 61
24 25 27 27 28 28 28 28 28 28 28 28 29 31 33 34 36 37 39 41 43 44 46 48 49 51 52 53 54 55 57 58 59 60 61 61 61 60 60 59 58 56 55 54
25 26 26 26 26 26 26 26 27 27 28 30 32 33 35 37 39 41 42 44 46 48 49 50 51 52 53 54 55 56 57 57 58 58 57 57 56 56 55 54 52 51 49 47
26 26 26 26 26 25 25 25 27 29 31 33 35 37 39 41 43 45 46 47 49 50 50 51 52 53 54 54 55 55 55 55 55 54 54 53 52 51 49 47 45 43 40 38
27 27 26 26 26 27 28 29 31 33 35 37 39 41 43 45 46 47 48 49 50 51 51 52 52 53 53 53 52 52 52 51 50 49 48 46 45 43 40 38 37 35 33 32
27 27 28 28 29 29 31 33 35 38 40 42 44 45 46 47 48 49 50 50 50 51 51 51 51 50 50 49 48 48 47 46 45 44 43 41 39 36 34 33 32 30 28 25
29 30 30 31 33 34 36 38 40 42 44 45 46 47 48 48 49 49 49 49 49 49 48 48 47 47 46 45 44 44 43 42 41 39 37 35 33 31 29 28 27 25 22 19
31 32 34 35 37 39 41 43 44 45 46 47 47 48 48 48 48 48 47 47 46 45 45 44 44 43 42 41 40 40 39 37 35 34 33 31 29 27 26 24 22 20 18 17
34 36 39 41 42 44 45 45 46 46 47 48 48 47 47 46 45 45 44 43 42 42 41 41 40 39 38 37 36 35 34 33 32 31 30 27 25 24 23 20 18 17 15 14
39 41 42 44 45 46 46 46 46 47 46 46 45 44 43 42 42 41 40 39 38 37 37 36 36 35 34 33 33 32 31 30 28 27 25 23 22 20 18 16 15 14 13 12
42 43 44 44 45 44 44 44 44 44 43 41 40 39 39 38 37 36 35 34 33 33 33 32 32 32 31 30 29 28 27 25 23 22 20 18 17 16 15 14 13 13 12 11
41 41 41 42 42 42 41 41 40 38 37 37 35 34 34 33 32 31 30 29 29 29 29 29 30 29 28 26 25 24 23 21 20 18 16 15 14 14 13 12 12 12 12 11
Wind_Direction
282 289 296 299 299 298 297 291 290 287 283 277 270 267 268 268 269 268 263 264 263 261 259 256 256 257 257 259 262 265 268 271 273 276 278 280 282 284 286 289 290 291 291 292
282 289 295 298 300 298 296 291 288 286 284 281 276 268 267 268 269 268 261 260 261 259 260 261 261 262 263 265 269 272 274 275 276 278 280 282 284 286 288 289 290 291 292 292
283 286 291 299 302 299 295 290 288 285 286 283 277 272 268 267 268 268 264 263 262 259 257 259 262 265 266 269 273 276 277 278 280 281 283 284 286 287 288 289 290 290 292 293
282 285 287 295 299 298 295 291 288 281 281 281 279 274 267 265 266 266 264 264 262 262 261 263 265 268 271 273 277 280 280 281 282 284 285 285 286 287 288 289 290 291 292 293
280 284 290 295 295 294 294 292 286 282 281 279 276 274 269 267 264 264 263 261 261 261 264 266 267 270 273 276 278 280 282 283 284 286 286 286 287 288 289 289 290 291 292 292
276 282 290 294 291 289 289 290 285 282 282 281 280 275 267 264 262 262 265 265 264 264 266 268 271 274 276 279 281 282 282 283 284 285 285 286 287 287 288 289 290 290 290 290
275 281 286 288 287 285 285 288 284 283 282 279 281 278 273 266 264 265 269 270 268 269 271 271 274 277 279 281 282 282 282 283 283 284 284 285 286 287 288 288 288 288 289 289
273 278 281 282 283 282 283 284 283 283 281 280 281 282 278 274 271 269 271 274 272 273 274 276 277 279 280 281 283 283 284 284 284 284 285 286 286 286 287 287 287 287 288 288
272 276 278 279 281 281 281 282 283 281 280 281 280 280 279 276 274 273 275 275 275 275 277 278 281 281 281 283 284 284 284 285 285 285 286 287 287 286 286 286 287 287 287 287
271 274 276 279 280 277 278 280 281 279 280 282 280 277 276 275 275 274 276 277 279 280 281 282 283 284 284 285 286 286 286 286 287 287 287 287 287 288 288 287 287 287 287 287
272 274 276 277 277 276 277 281 280 277 279 280 279 277 276 278 279 279 280 282 283 284 285 285 287 287 288 288 288 288 289 289 289 289 289 289 289 289 288 288 288 288 288 287
272 274 274 276 276 276 276 277 279 278 279 281 282 281 280 281 282 282 284 285 285 286 287 288 289 289 289 290 290 291 291 291 291 291 290 290 290 289 289 289 289 288 288 287
271 272 274 275 276 275 275 275 275 276 278 280 280 279 281 283 284 285 285 286 287 288 289 289 290 291 291 292 292 292 292 292 292 292 291 291 290 290 289 289 288 288 288 287
270 272 272 273 272 273 273 273 273 274 274 275 276 279 282 284 285 286 288 289 290 291 291 292 292 293 293 294 294 295 295 294 294 293 293 292 292 291 291 290 289 288 287 287
269 270 272 272 271 271 269 269 270 272 273 275 278 280 283 285 287 289 291 292 293 293 294 295 295 295 296 296 296 296 296 296 296 295 295 294 294 293 293 292 291 290 289 288
269 269 270 271 272 269 267 267 269 270 271 274 278 282 285 287 290 292 293 294 295 296 296 296 297 297 297 297 298 298 298 298 298 297 297 297 297 296 296 295 294 294 293 292
270 271 272 272 271 269 269 269 269 271 271 275 281 285 288 290 292 294 295 297 297 297 298 298 299 299 299 299 300 300 300 300 300 300 300 300 299 299 298 297 297 297 296 295
272 275 275 274 275 273 270 270 270 272 276 282 286 288 290 293 295 297 297 298 299 299 300 300 301 301 301 301 301 302 302 302 302 302 302 302 302 301 301 301 300 299 299 298
277 277 277 278 277 275 274 273 275 279 282 286 289 291 294 296 298 298 299 300 300 301 302 302 302 302 303 303 303 303 304 304 304 304 305 305 305 305 304 304 304 303 303 302
278 278 278 278 276 275 275 277 279 282 286 289 292 295 297 298 299 300 301 302 302 303 303 303 303 303 303 304 304 304 305 306 306 307 307 308 309 309 309 310 310 309 308 307
279 279 279 276 274 276 278 280 282 286 290 293 295 297 298 299 300 301 302 303 303 303 303 303 303 303 304 305 305 306 307 307 308 308 309 309 310 312 313 314 314 314 314 313
277 277 276 276 278 280 281 283 286 290 293 295 297 298 299 300 301 302 302 303 303 304 304 304 304 305 305 306 307 307 307 308 309 310 311 312 312 314 315 316 318 319 319 319
276 276 278 280 282 284 287 290 292 295 296 297 298 299 300 301 302 302 303 303 303 304 304 304 305 306 306 306 307 308 309 310 311 312 314 314 315 316 319 320 322 323 324 324
275 277 280 283 286 289 292 294 296 297 298 299 300 300 301 301 301 302 302 303 303 303 304 305 306 307 307 308 309 310 311 312 313 314 315 316 316 318 321 322 324 326 327 328
279 282 285 287 290 292 294 296 297 298 299 299 300 301 301 301 301 302 302 303 303 304 306 308 308 309 309 310 310 311 312 313 314 316 317 318 320 322 324 326 328 330 329 329
284 286 288 290 292 294 296 297 298 298 299 299 300 300 301 302 302 303 303 303 304 306 308 309 310 311 312 313 314 315 316 317 319 321 322 323 325 328 332 334 334 337 338 335
288 289 291 293 294 296 297 297 298 299 299 300 300 301 302 303 304 304 304 305 306 308 310 311 312 314 315 316 317 319 320 322 324 326 327 329 332 337 342 343 342 342 343 343
Height
5839 5838 5838 5837 5836 5835 5834 5834 5834 5834 5834 5834 5834 5835 5835 5835 5835 5835 5835 5834 5834 5833 5833 5833 5832 5832 5832 5832 5831 5831 5830 5830 5829 5827 5826 5825 5824 5822 5821 5819 5817 5816 5814 5812
5834 5834 5833 5833 5832 5830 5830 5830 5830 5830 5830 5830 5829 5830 5831 5831 5831 5831 5830 5830 5830 5829 5829 5828 5828 5827 5827 5826 5826 5825 5824 5823 5822 5821 5819 5818 5816 5814 5813 5811 5809 5807 5805 5803
5829 5829 5828 5828 5828 5826 5825 5825 5825 5825 5826 5825 5825 5825 5825 5826 5826 5825 5825 5825 5825 5824 5823 5823 5823 5822 5821 5821 5820 5819 5818 5817 5815 5813 5812 5810 5808 5806 5804 5802 5800 5798 5796 5794
5824 5824 5823 5826 5823 5822 5821 5820 5820 5820 5819 5819 5819 5819 5819 5820 5820 5819 5819 5819 5819 5818 5818 5817 5817 5816 5815 5814 5813 5812 5810 5809 5807 5805 5804 5802 5799 5797 5795 5792 5790 5788 5786 5784
5818 5817 5818 5819 5818 5816 5816 5816 5815 5814 5814 5813 5813 5813 5813 5813 5813 5813 5812 5812 5811 5811 5811 5811 5810 5809 5808 5807 5805 5804 5802 5801 5799 5797 5794 5792 5790 5787 5785 5783 5781 5778 5776 5773
5812 5812 5812 5814 5812 5810 5811 5811 5810 5809 5808 5807 5807 5807 5807 5806 5806 5806 5805 5805 5804 5804 5803 5803 5802 5801 5800 5799 5797 5795 5793 5791 5789 5787 5785 5782 5779 5777 5774 5772 5769 5767 5764 5762
5806 5806 5807 5807 5805 5805 5806 5806 5804 5803 5802 5802 5801 5801 5800 5799 5799 5799 5798 5797 5797 5796 5795 5795 5794 5793 5791 5790 5788 5786 5784 5782 5779 5777 5774 5771 5769 5766 5763 5760 5758 5755 5752 5749
5800 5801 5802 5800 5799 5800 5799 5798 5797 5797 5796 5796 5795 5793 5793 5792 5791 5791 5790 5789 5789 5788 5787 5786 5785 5784 5782 5780 5778 5776 5773 5771 5768 5766 5763 5760 5757 5754 5750 5747 5744 5741 5738 5735
5795 5796 5795 5794 5794 5793 5792 5792 5791 5790 5790 5789 5788 5787 5786 5785 5784 5784 5783 5782 5781 5780 5779 5778 5776 5774 5772 5770 5767 5765 5762 5760 5757 5754 5750 5747 5744 5740 5737 5733 5730 5726 5723 5720
5788 5788 5788 5788 5787 5786 5786 5785 5784 5784 5783 5782 5781 5780 5779 5778 5777 5777 5776 5775 5773 5772 5770 5768 5766 5764 5761 5759 5756 5753 5750 5747 5744 5741 5737 5734 5729 5726 5722 5718 5714 5710 5706 5703
5780 5781 5781 5781 5780 5780 5779 5779 5778 5777 5776 5775 5775 5774 5773 5772 5770 5769 5768 5766 5764 5762 5760 5758 5756 5753 5751 5748 5745 5741 5738 5735 5731 5727 5723 5719 5715 5710 5706 5701 5696 5693 5688 5684
5773 5774 5774 5774 5773 5773 5772 5772 5771 5770 5769 5768 5767 5766 5765 5763 5762 5761 5759 5757 5755 5753 5751 5748 5745 5742 5739 5736 5733 5729 5725 5721 5717 5713 5708 5704 5699 5695 5689 5684 5679 5673 5668 5664
5765 5765 5766 5766 5766 5765 5765 5764 5763 5762 5761 5760 5759 5758 5756 5755 5754 5752 5750 5748 5745 5743 5740 5738 5734 5731 5727 5724 5720 5716 5712 5707 5703 5698 5693 5688 5683 5678 5673 5668 5661 5654 5648 5642
5757 5758 5758 5758 5757 5757 5757 5756 5755 5754 5753 5752 5751 5749 5748 5746 5745 5742 5740 5738 5735 5732 5729 5726 5722 5719 5715 5711 5706 5702 5697 5692 5687 5681 5676 5670 5664 5658 5652 5647 5642 5636 5628 5621
5750 5750 5750 5750 5749 5749 5748 5747 5746 5745 5744 5743 5742 5741 5739 5737 5735 5732 5730 5727 5724 5721 5718 5714 5710 5706 5701 5697 5692 5687 5681 5676 5670 5664 5658 5651 5644 5638 5631 5624 5618 5612 5606 5600
5742 5742 5742 5741 5741 5740 5739 5738 5737 5736 5735 5734 5733 5731 5729 5727 5725 5722 5719 5716 5713 5709 5705 5701 5697 5692 5687 5682 5676 5671 5665 5658 5652 5645 5639 5631 5624 5617 5610 5603 5596 5589 5583 5577
5735 5734 5734 5733 5732 5731 5730 5729 5728 5727 5726 5725 5723 5721 5719 5717 5714 5711 5708 5704 5701 5696 5692 5687 5682 5677 5671 5666 5660 5654 5648 5641 5634 5627 5619 5612 5604 5597 5590 5583 5576 5570 5564 5557
5727 5727 5726 5725 5723 5722 5721 5720 5719 5718 5717 5715 5713 5711 5709 5706 5703 5700 5696 5692 5687 5682 5677 5672 5667 5661 5656 5650 5643 5637 5630 5623 5616 5609 5602 5594 5586 5579 5572 5565 5558 5552 5546 5541
5719 5718 5717 5716 5715 5714 5713 5712 5710 5709 5707 5705 5703 5700 5697 5694 5690 5686 5682 5678 5673 5668 5663 5657 5651 5646 5640 5633 5627 5620 5614 5607 5600 5593 5586 5578 5571 5563 5556 5549 5543 5537 5531 5526
5711 5710 5709 5708 5706 5705 5704 5703 5701 5699 5696 5694 5691 5688 5685 5681 5677 5672 5668 5663 5658 5653 5648 5642 5636 5630 5624 5618 5612 5605 5599 5592 5586 5579 5572 5565 5558 5551 5544 5538 5532 5526 5521 5516
5702 5701 5700 5698 5697 5695 5694 5692 5690 5688 5685 5682 5679 5676 5671 5667 5663 5659 5654 5649 5644 5638 5633 5627 5622 5616 5610 5604 5598 5592 5586 5579 5573 5566 5560 5554 5548 5542 5536 5530 5524 5518 5514 5509
5692 5691 5690 5688 5687 5685 5683 5681 5679 5676 5673 5669 5666 5662 5658 5654 5649 5645 5640 5635 5630 5624 5619 5613 5608 5603 5597 5592 5586 5580 5574 5568 5562 5556 5550 5545 5539 5534 5528 5523 5518 5513 5508 5505
5682 5681 5679 5678 5676 5674 5672 5669 5666 5663 5660 5656 5652 5648 5644 5640 5635 5631 5626 5621 5616 5611 5606 5601 5596 5591 5586 5580 5575 5569 5564 5558 5553 5547 5542 5537 5532 5527 5522 5517 5512 5508 5505 5502
5672 5670 5668 5666 5664 5662 5659 5656 5653 5649 5646 5642 5638 5634 5630 5626 5622 5617 5613 5608 5604 5599 5594 5590 5585 5580 5575 5570 5565 5560 5555 5550 5545 5540 5535 5530 5526 5521 5517 5513 5509 5506 5503 5500
5661 5659 5657 5655 5652 5649 5646 5643 5640 5636 5633 5629 5625 5621 5617 5613 5609 5605 5601 5597 5593 5589 5584 5580 5575 5570 5566 5561 5557 5552 5547 5542 5537 5533 5529 5525 5521 5517 5513 5510 5507 5504 5501 5499
5650 5648 5645 5643 5640 5637 5634 5631 5627 5624 5620 5616 5613 5609 5605 5602 5598 5594 5591 5587 5583 5579 5575 5571 5567 5562 5558 5554 5549 5544 5540 5535 5531 5527 5524 5520 5517 5514 5511 5508 5505 5502 5500 5497
5638 5636 5633 5630 5627 5625 5622 5618 5615 5612 5608 5605 5602 5598 5595 5592 5589 5585 5582 5579 5575 5572 5568 5564 5560 5556 5551 5547 5543 5539 5535 5531 5527 5524 5521 5517 5515 5512 5509 5506 5504 5501 5499 5497